Location: Lawrence
(40.6157°N, 73.7296°W)
Time: 04:11:53
(UTC+00:00)

Daily predictions for brighter satellites

Satellite Brightness Start Highest point End
(mag) Time Altitude Azimuth Time Altitude Azimuth Time Altitude Azimuth
Cosmos 1536 Rocket 4.1 00:01:48 10° N 00:05:56 36° ENE 00:08:22 21° SE
Cosmos 372 Rocket 4.0 00:01:36 10° SSW 00:06:51 86° WNW 00:12:07 10° NNE
Cosmos 2263 Rocket 4.0 00:03:42 10° WSW 00:08:41 33° WNW 00:13:43 10° N
Cosmos 1464 Rocket 3.9 00:03:06 10° S 00:09:11 77° E 00:15:21 10° N
Cosmos 1844 4.0 00:04:34 10° S 00:09:55 43° ESE 00:15:14 10° NE
Cosmos 1025 Rocket 3.1 00:06:49 10° N 00:11:08 56° E 00:14:52 13° SSE
USA 186 2.2 00:11:48 36° E 00:12:12 38° ENE 00:15:14 10° N
BREEZE-M DEB (TANK) 3.2 00:09:48 10° SW 00:12:44 82° SE 00:21:32 10° NE
Cosmos 1844 Rocket 2.6 00:09:14 10° S 00:14:40 59° ESE 00:20:10 10° NNE
Cosmos 1867 3.6 00:11:10 10° NNW 00:16:39 85° WSW 00:21:02 16° SSE
ISS -2.0 00:17:16 10° W 00:20:18 30° NNW 00:22:47 13° NNE
Cosmos 2151 Rocket 3.5 00:17:33 10° S 00:21:59 74° E 00:26:28 10° NNE
USA 234 3.6 00:17:31 10° ENE 00:23:40 43° SE 00:29:49 10° SSW
Cosmos 2150 Rocket 4.0 00:21:09 10° SSW 00:26:31 88° ESE 00:31:59 10° NNE
MetOp-A 4.3 00:26:18 29° SE 00:28:44 49° ENE 00:33:54 10° N
Cosmos 1125 Rocket 3.4 00:25:37 10° S 00:30:50 64° ESE 00:36:06 10° NNE
MOS 1 4.3 00:27:57 24° SE 00:31:18 59° ENE 00:36:54 10° N
CZ-2C R/B 2.0 00:29:29 10° WSW 00:32:39 29° S 00:32:43 29° S
DMSP B5D2-2 4.0 00:31:45 10° NNE 00:37:00 63° E 00:42:14 10° S
NOSS 3-2 (C) 4.3 00:31:23 10° NNW 00:38:45 52° NE 00:42:21 33° ESE
Exosat Rocket 3.5 00:33:02 10° S 00:38:52 68° ESE 00:43:51 10° NNE
NOSS 3-4 (A) 3.6 00:35:05 10° S 00:40:32 42° ESE 00:42:16 34° ENE
NOSS 3-4 (C) 3.6 00:35:13 10° S 00:40:38 41° ESE 00:41:56 36° E
Cosmos 468 4.5 00:45:18 10° NNW 00:50:40 85° WSW 00:52:48 38° SSE
Meteor 1-15 Rocket 4.2 00:48:05 10° S 00:53:42 85° W 00:59:27 10° N
Cosmos 1674 2.9 00:50:44 10° N 00:54:01 63° N 00:54:01 63° N
Cosmos 1805 4.1 00:57:53 40° N 00:57:53 40° N 01:00:28 10° N
Resurs 01 Rocket 3.0 00:59:15 27° NNE 00:59:15 27° NNE 01:01:44 10° N
H-2A R/B 3.8 00:54:02 10° SSW 00:58:20 30° W 01:02:43 10° NW
Cosmos 1048 Rocket 4.2 00:56:01 10° NNW 01:01:19 72° WSW 01:03:09 41° S
Nadezhda 4 Rocket 4.2 00:56:43 10° NNW 01:02:46 66° W 01:07:55 15° S
ATLAS 2AS CENTAUR R/B 3.0 00:55:19 10° SSW 01:03:01 61° ESE 01:10:48 10° NE
BREEZE-M TANK 3.2 00:55:56 10° W 01:04:25 61° NNW 01:05:14 49° NNE
CENTAUR R/B 3.2 01:03:23 10° NNW 01:11:36 73° NE 01:14:15 49° ESE
Okean 1 Rocket 3.5 01:16:18 59° WSW 01:16:39 61° W 01:21:06 10° N
Ariane Rocket 4.0 01:16:43 25° SSW 01:19:11 43° W 01:24:01 10° NNW
ATLAS 3B R/B 3.7 01:13:35 10° NNW 01:19:38 32° NE 01:20:03 31° NE
OBJECT-B 3.6 01:23:19 16° NNW 01:23:19 16° NNW 01:24:05 10° NNW
Cosmos 2082 Rocket 4.1 01:21:05 10° N 01:23:32 17° NNE 01:23:32 17° NNE
Cosmos 494 Rocket 4.2 01:21:34 10° NNW 01:26:47 66° WSW 01:26:49 66° WSW
USA 238 DEB 4.0 01:20:02 10° NW 01:27:15 67° WSW 01:29:18 49° S
USA 238 4.0 01:20:07 10° NW 01:27:22 68° WSW 01:29:22 49° S
Meteor 2-5 Rocket 3.7 01:21:55 10° NNW 01:27:36 79° W 01:27:52 77° SW
Meteor 1-22 Rocket 4.3 01:32:16 81° WSW 01:32:24 82° W 01:38:28 10° N
CZ-2C R/B 4.2 01:28:59 10° N 01:34:01 36° WNW 01:39:05 10° SW
Cosmos 1634 Rocket 4.2 01:37:16 46° SW 01:39:05 67° W 01:45:16 10° N
COSMOS 2406 4.1 01:34:18 10° NNW 01:38:13 40° NNE 01:38:13 40° NNE
SPOT 3 Rocket 4.2 01:44:55 52° WNW 01:44:55 52° WNW 01:49:15 10° NNW
Meteor 1-24 Rocket 4.1 01:39:51 10° NNW 01:44:32 61° NW 01:44:32 61° NW
USA 234 3.7 02:04:41 41° NNE 02:06:46 57° NW 02:13:09 10° WSW
Lacrosse 5 rocket 4.5 02:05:43 10° N 02:06:10 11° N 02:06:10 11° N
Cosmos 1833 Rocket 4.3 02:19:09 10° NNW 02:21:52 30° NNW 02:21:52 30° NNW
ATLAS 2AS CENTAUR R/B 4.2 02:47:10 10° WSW 02:54:27 38° NW 03:01:40 10° NNE
CENTAUR R/B 4.5 02:54:58 10° NW 03:01:27 30° WSW 03:01:27 30° WSW
ATLAS 3B R/B 4.2 03:03:54 10° NW 03:07:18 31° NW 03:07:18 31° NW
Cosmos 1697 Rocket 4.4 07:06:50 28° NE 07:06:50 28° NE 07:09:26 10° NNE
Cosmos 1980 Rocket 3.8 07:10:59 30° ENE 07:10:59 30° ENE 07:14:20 10° NE
ADEOS II 3.8 07:25:52 10° N 07:28:11 27° N 07:28:11 27° N
ARIANE 5 R/B 3.9 07:29:14 10° NNE 07:32:21 35° NE 07:32:21 35° NE
CZ-3B R/B 4.5 07:37:59 18° NNE 07:37:59 18° NNE 07:40:11 10° NE
Nadezhda 3 Rocket 4.5 07:41:13 53° N 07:41:13 53° N 07:45:47 10° N
IDEFIX/ARIANE 42P 3.6 07:34:59 10° NNE 07:39:15 43° ENE 07:39:15 43° ENE
SJ 16-02 3.8 07:47:52 10° NNE 07:51:14 21° ENE 07:54:34 10° ESE
Cosmos 1238 Rocket 4.4 07:51:01 10° N 07:57:31 60° E 08:00:20 32° SSE
H-2A R/B 4.2 07:55:40 10° ESE 07:59:18 26° ENE 08:02:59 10° N
Lacrosse 5 3.2 08:06:13 31° N 08:06:13 31° N 08:09:48 10° NNE
CZ-2D R/B 4.5 08:03:39 10° NNW 08:04:03 11° NNW 08:04:03 11° NNW
Cosmos 2278 4.0 08:08:13 57° NNW 08:08:13 57° NNW 08:13:01 10° NNE
X-37B 3.3 08:18:53 20° ENE 08:18:53 20° ENE 08:20:09 10° ENE
NOSS 3-3 (A) 3.7 08:19:03 73° SSW 08:19:39 87° ESE 08:26:03 10° NE
NOSS 3-3 (C) 3.6 08:19:13 74° SSW 08:19:47 87° SE 08:26:07 10° NE
USA 267 3.6 08:14:56 10° NE 08:21:14 51° NNW 08:22:28 45° WNW
Cosmos 1339 Rocket 4.4 08:29:39 39° S 08:32:13 86° W 08:38:29 10° N
Spot 4 Rocket 4.0 08:30:05 10° N 08:35:06 60° WNW 08:35:06 60° WNW
Meteor 2-7 Rocket 4.5 08:37:37 51° SSW 08:39:00 77° W 08:44:31 10° N
SL-8 R/B 3.9 08:39:54 43° NW 08:41:18 66° NNE 08:46:03 10° ESE
ADEOS Rocket 4.1 08:35:34 10° SE 08:42:04 48° ENE 08:47:57 10° N
Cosmos 921 Rocket 3.1 08:43:18 56° NNW 08:43:18 56° NNW 08:46:54 10° N
Cosmos 2360 Rocket 4.1 08:38:26 10° SSE 08:43:08 28° ESE 08:47:51 10° NE
Cosmos 1898 Rocket 4.4 08:39:33 10° N 08:44:40 49° ENE 08:49:46 10° SE
MSX 3.8 08:39:22 10° N 08:45:07 67° WNW 08:47:05 41° SW
CZ-4C R/B 3.7 08:47:18 45° NNW 08:47:18 45° NNW 08:49:53 10° NNW
Cosmos 1812 2.7 08:46:42 69° NNW 08:46:42 69° NNW 08:50:12 10° N
Timation 1 Rocket 4.5 08:42:08 10° NW 08:47:52 48° WSW 08:53:35 10° S
Cosmos 1697 Rocket 4.2 08:48:35 19° NW 08:48:35 19° NW 08:52:19 10° N
Cosmos 1500 3.6 08:44:38 10° N 08:47:33 49° NNW 08:47:33 49° NNW
IRIDIUM 104 4.4 08:43:22 10° N 08:48:36 79° E 08:53:49 10° S
Cosmos 1707 Rocket 4.0 08:49:22 14° S 08:53:00 59° E 08:57:17 10° NNE
Cosmos 1980 Rocket 3.0 08:52:46 31° WNW 08:53:09 31° WNW 08:58:11 10° N
Cosmos 1666 3.5 08:50:20 10° N 08:54:04 51° E 08:57:45 10° SSE
USA 234 3.2 08:48:07 10° SE 08:54:40 88° NE 09:01:14 10° NW
IRIDIUM 114 4.2 08:52:30 10° N 08:57:45 85° W 09:02:57 10° S
Cosmos 2322 Rocket 2.4 08:55:32 18° SSW 08:59:49 74° ESE 09:05:31 10° NNE
BREEZE-M DEB (TANK) 3.2 08:55:57 30° WSW 08:59:56 85° SSE 09:03:21 10° ENE
BREEZE-M DEB (TANK) 3.6 09:01:04 33° NW 09:01:44 37° N 09:07:20 10° ENE
Cosmos 2263 Rocket 2.1 08:56:29 10° NNW 09:02:09 76° WSW 09:07:48 10° SSE
USA 32 4.3 08:58:15 10° N 09:03:31 72° E 09:08:44 10° S
IRIDIUM 103 4.2 09:01:41 10° N 09:06:53 70° W 09:12:03 10° S
SL-16 R/B 2.1 09:05:31 23° SSW 09:09:07 77° WNW 09:14:49 10° NNE
Cosmos 2228 Rocket 3.9 09:09:42 30° WNW 09:09:42 30° WNW 09:13:21 10° NNW
SL-4 R/B 2.2 09:08:18 37° SW 09:10:06 89° SSE 09:14:54 10° NE
Cosmos 1937 Rocket 4.1 09:05:08 10° NNW 09:10:14 59° ENE 09:15:17 10° SSE
FALCON 9 DEB 3.0 09:10:01 58° WSW 09:10:37 81° NW 09:14:03 10° NE
Cosmos 1733 Rocket 4.1 09:08:38 10° N 09:12:50 47° ENE 09:17:00 10° SSE
ARIANE 5 R/B 4.0 09:09:25 10° NNW 09:12:41 19° WNW 09:12:41 19° WNW
ADEOS 4.1 09:09:54 10° NNE 09:15:05 62° ESE 09:20:14 10° S
Meteor 1-4 Rocket 2.8 09:16:32 40° W 09:16:39 40° WNW 09:19:58 10° N
Cosmos 841 Rocket 3.9 09:11:38 10° S 09:16:46 64° ESE 09:21:59 10° NNE
Cosmos 44 Rocket 3.8 09:12:56 11° SSW 09:17:18 56° ESE 09:22:01 10° NE
Gbstr 26 Del rocket 4.4 09:10:11 10° NW 09:18:18 82° NE 09:25:22 10° ESE
Cosmos 2173 Rocket 4.4 09:12:12 10° N 09:18:31 68° E 09:24:51 10° SSE
IDEFIX/ARIANE 42P 3.8 09:15:18 10° NNW 09:19:19 22° WNW 09:20:03 22° WNW
CZ-2C R/B 2.5 09:14:27 10° N 09:19:33 65° WNW 09:24:41 10° SSW
Cosmos 1869 Rocket 3.9 09:15:51 10° NNW 09:19:55 41° W 09:23:58 10° SSW
Cosmos 2227 4.3 09:15:49 10° NW 09:21:13 48° WSW 09:26:34 10° S
CZ-2C R/B 4.2 09:19:15 10° NNW 09:21:45 21° WNW 09:21:45 21° WNW
ERBS 3.7 09:22:46 22° NW 09:23:19 23° NW 09:26:04 10° NNE
Cosmos 1763 Rocket 3.6 09:21:34 19° SW 09:25:19 55° WNW 09:30:33 10° N
Cosmos 1862 Rocket 3.9 09:22:50 10° S 09:27:11 68° E 09:31:32 10° NNE
SJ-6F 4.3 09:25:01 10° N 09:29:07 85° WNW 09:33:11 10° SSW
SJ 16-02 1.9 09:25:54 10° NW 09:29:53 34° W 09:33:51 10° SSW
Intercosmos 25 4.4 09:25:50 10° S 09:30:06 45° E 09:33:21 10° NNE
PSLV R/B 4.0 09:28:03 10° N 09:31:58 38° WNW 09:34:43 17° SW
Cosmos 967 Rocket 4.5 09:27:03 13° SW 09:32:53 72° WNW 09:39:19 10° NNE
Cosmos 1743 4.2 09:29:42 10° N 09:33:18 39° ENE 09:36:53 10° SSE
Cosmos 2219 Rocket 4.5 09:29:00 10° SSE 09:33:34 26° ESE 09:38:10 10° NE
CZ-4B R/B 1.1 09:31:24 10° SSE 09:34:31 87° W 09:37:45 10° NNW
H-2A R/B 2.9 09:31:24 10° SSW 09:35:09 28° W 09:38:59 10° NW
DEBRIS 2.8 09:34:58 21° WNW 09:36:42 64° SSW 09:43:14 10° SE
Cosmos 1570 Rocket 4.0 09:33:45 10° SSW 09:39:03 83° WNW 09:44:27 10° NNE
PKM 4.4 09:37:41 10° NW 09:41:15 62° NE 09:45:26 10° ESE
Cosmos 1689 Rocket 3.5 09:41:21 10° SSE 09:44:09 41° ENE 09:47:00 10° N
ERS-2 3.0 09:44:55 10° SSW 09:48:07 28° W 09:51:21 10° NW
Cosmos 2016 Rocket 4.1 09:43:08 10° N 09:49:16 79° E 09:55:21 10° S
Lacrosse 5 4.1 09:46:55 10° NW 09:49:31 14° NNW 09:52:08 10° NNE
Cosmos 2333 Rocket 3.7 09:44:22 10° S 09:49:40 39° ESE 09:54:59 10° NE
Cosmos 1000 Rocket 4.5 09:44:27 10° SSW 09:50:35 64° W 09:56:43 10° N
Cosmos 990 Rocket 4.5 09:45:56 10° NW 09:50:41 37° WSW 09:55:27 10° SSW
Okean 1 3.8 09:47:33 10° S 09:51:33 65° E 09:55:35 10° NNE
Cosmos 540 Rocket 3.5 09:46:55 10° SSW 09:52:01 62° WNW 09:57:10 10° NNE
Meteor 2-20 4.4 09:46:21 10° S 09:52:29 79° W 09:58:38 10° N
CZ-4B R/B 3.5 09:49:48 10° NNE 09:53:22 53° E 09:56:53 10° S
X-37B 0.6 09:51:10 12° WNW 09:54:02 83° NNE 09:57:13 10° ESE
CZ-4B R/B 4.0 09:50:51 10° N 09:55:12 78° WNW 09:59:40 10° SSW
Cosmos 2322 4.3 09:52:31 10° S 09:58:04 60° ESE 10:03:38 10° NNE
ALOS 2.3 09:54:47 10° N 09:59:25 64° WNW 10:04:01 10° SSW
Cosmos 1484 Rocket 3.0 09:55:40 10° N 09:59:34 53° WNW 10:03:28 10° SSW
Meteor PRIRODA 4.4 09:56:34 10° NNE 10:00:10 55° E 10:03:44 10° S
COSMO-SKYMED 1 3.0 09:57:41 10° SSE 10:01:58 67° ENE 10:06:18 10° N
NOSS 3-4 (A) 4.0 09:57:08 10° NW 10:04:19 85° WSW 10:12:13 10° SSE
NOSS 3-4 (C) 4.0 09:57:15 10° NW 10:04:25 86° WSW 10:12:20 10° SSE
Cosmos 1536 3.8 10:03:36 10° NNW 10:07:04 27° W 10:10:32 10° SSW
Cosmos 1725 Rocket 4.0 10:02:54 10° N 10:09:07 88° W 10:15:17 10° S
Meteor 1-31 Rocket 3.0 10:07:25 10° N 10:11:06 46° WNW 10:14:48 10° SSW
Cosmos 1437 Rocket 2.8 10:09:47 10° SSW 10:13:29 54° WNW 10:17:14 10° N
Cosmos 2100 Rocket 4.5 10:09:34 10° NNW 10:15:27 40° W 10:21:17 10° SSW
Cosmos 2333 4.4 10:10:05 10° SSW 10:15:52 86° ESE 10:21:41 10° NNE
